Simultaneous Nadir Overpasses (SNOs) Predictions

Prediction of SNOs between NOAA-20 and LANDSAT-8 Satellite Orbit:

Table of predicted SNOs for the next 14.0 days since TLE Epoch: 6/29/2020
Index Date (NOAA-20) Time (NOAA-20) Lat,Lon (NOAA-20) SZA (NOAA-20 ) Date (LANDSAT-8) Time (LANDSAT-8) Lat,Lon (LANDSAT-8) SZA (LANDSAT-8 ) Distance(km) Time Diff (sec)
1 06/29/2020 22:49:28 -70.11, 13.92 133.07 06/29/2020 22:49:57 -70.08, 13.91 133.11 3.41 29
2 06/29/2020 23:40:12 70.00,-178.60 46.82 06/29/2020 23:39:24 69.99,-178.58 46.81 2.02 48
3 07/02/2020 14:15:44 70.42, -38.10 47.44 07/02/2020 14:16:55 70.33, -37.49 47.32 24.79 71
4 07/02/2020 15:06:21 -70.06, 129.77 132.93 07/02/2020 15:06:28 -70.05, 129.74 132.94 1.51 7
5 07/02/2020 15:57:05 69.95, -62.75 46.96 07/02/2020 15:55:55 69.95, -62.76 46.97 0.19 70
6 07/05/2020 06:32:32 70.15, 78.08 47.41 07/05/2020 06:33:28 70.12, 78.09 47.37 3.36 56
7 07/05/2020 07:23:13 -70.00,-114.37 132.75 07/05/2020 07:22:58 -70.02,-114.43 132.74 2.51 15
8 07/05/2020 08:13:44 69.21, 54.10 46.42 07/05/2020 08:12:36 69.30, 52.24 46.60 74.03 68
9 07/07/2020 22:49:25 70.10,-166.07 47.64 07/07/2020 22:49:59 70.08,-166.09 47.62 2.34 34
10 07/07/2020 23:40:07 -70.00, 1.40 132.46 07/07/2020 23:39:29 -69.98, 1.40 132.48 2.99 38
11 07/10/2020 14:15:45 -70.73, 141.40 131.37 07/10/2020 14:16:54 -70.64, 142.97 131.53 58.42 69
12 07/10/2020 15:06:18 70.05, -50.22 47.93 07/10/2020 15:06:30 70.04, -50.27 47.91 2.38 12
13 07/10/2020 15:57:00 -69.95, 117.25 132.18 07/10/2020 15:56:00 -69.94, 117.22 132.19 2.13 60
14 07/13/2020 06:32:28 -70.16,-101.91 131.59 07/13/2020 06:33:33 -70.16,-101.86 131.60 2.09 65
15 07/13/2020 07:23:12 70.06, 65.55 48.31 07/13/2020 07:23:00 70.05, 65.63 48.30 3.05 12
16 07/13/2020 08:13:47 -69.59,-126.43 132.19 07/13/2020 08:12:35 -69.68,-127.26 132.05 33.82 72
